"Sample Date","Sample Time","Sample Value","Units","Flow Rate","Sample Interval","Number Channels","Micron Size 0","Counts/Channel 0","Micron Size 1","Counts/Channel 1","Micron Size 2","Counts/Channel 2","Micron Size 3","Counts/Channel 3","Micron Size 4","Counts/Channel 4","Micron Size 5","Counts/Channel 5","Micron Size 6","Counts/Channel 6","Micron Size 7","Counts/Channel 7","Micron Size 8","Counts/Channel 8","Micron Size 9","Counts/Channel 9","Micron Size 10","Counts/Channel 10","Micron Size 11","Counts/Channel 11","Micron Size 12","Counts/Channel 12","Micron Size 13","Counts/Channel 13","Micron Size 14","Counts/Channel 14","Micron Size 15","Counts/Channel 15","Micron Size 16","Counts/Channel 16","Micron Size 17","Counts/Channel 17","Micron Size 18","Counts/Channel 18","Micron Size 19","Counts/Channel 19","Micron Size 20","Counts/Channel 20","Micron Size 21","Counts/Channel 21","Micron Size 22","Counts/Channel 22","Micron Size 23","Counts/Channel 23","Micron Size 24","Counts/Channel 24","Micron Size 25","Counts/Channel 25","Micron Size 26","Counts/Channel 26","Micron Size 27","Counts/Channel 27","Micron Size 28","Counts/Channel 28","Micron Size 29","Counts/Channel 29","Micron Size 30","Counts/Channel 30","Micron Size 31","Counts/Channel 31"
"03/10/08","10:00:05",154059.000,"cc",28341.680,6.00,6,0.100,131887.000,0.200,15542.000,0.300,3105.000,0.500,2538.000,1.000,987.000,5.000,0
"03/10/08","10:00:11",179311.000,"cc",28369.623,6.00,6,0.100,153785.000,0.200,17943.000,0.300,3503.000,0.500,2946.000,1.000,1134.000,5.000,0
"03/10/08","10:00:17",139004.000,"cc",28272.291,6.00,6,0.100,118681.000,0.200,13603.000,0.300,3002.000,0.500,2680.000,1.000,1038.000,5.000,0
"03/10/08","10:00:23",133941.000,"cc",28356.338,6.00,6,0.100,113969.000,0.200,13166.000,0.300,2969.000,0.500,2761.000,1.000,1076.000,5.000,0
"03/10/08","10:00:29",120484.000,"cc",28286.299,6.00,6,0.100,101625.000,0.200,11760.000,0.300,3117.000,0.500,2889.000,1.000,1093.000,5.000,0
"03/10/08","10:00:35",84153.000,"cc",28311.586,6.00,6,0.100,70552.000,0.200,7782.000,0.300,2508.000,0.500,2453.000,1.000,858.000,5.000,0
"03/10/08","10:00:41",73160.000,"cc",28330.682,6.00,6,0.100,60732.000,0.200,6785.000,0.300,2466.000,0.500,2295.000,1.000,882.000,5.000,0
"03/10/08","10:00:47",70144.000,"cc",28311.356,6.00,6,0.100,57975.000,0.200,6512.000,0.300,2428.000,0.500,2293.000,1.000,936.000,5.000,0
"03/10/08","10:00:53",63514.000,"cc",28325.088,6.00,6,0.100,52380.000,0.200,5869.000,0.300,2254.000,0.500,2196.000,1.000,815.000,5.000,0
"03/10/08","10:00:59",71683.000,"cc",28328.756,6.00,6,0.100,59725.000,0.200,6603.000,0.300,2247.000,0.500,2254.000,1.000,854.000,5.000,0
"03/10/08","10:01:05",69932.000,"cc",28294.168,6.00,6,0.100,58016.000,0.200,6727.000,0.300,2283.000,0.500,2080.000,1.000,826.000,5.000,0
"03/10/08","10:01:11",65185.000,"cc",28359.320,6.00,6,0.100,53842.000,0.200,6185.000,0.300,2170.000,0.500,2146.000,1.000,842.000,5.000,0
"03/10/08","10:01:17",65868.000,"cc",28295.981,6.00,6,0.100,54561.000,0.200,6202.000,0.300,2135.000,0.500,2153.000,1.000,817.000,5.000,0
"03/10/08","10:01:23",123022.000,"cc",28344.762,6.00,6,0.100,104681.000,0.200,11931.000,0.300,2743.000,0.500,2652.000,1.000,1015.000,5.000,0
"03/10/08","10:01:29",134048.000,"cc",28349.570,6.00,6,0.100,114637.000,0.200,12820.000,0.300,2880.000,0.500,2666.000,1.000,1045.000,5.000,0
"03/10/08","10:01:35",140569.000,"cc",28302.781,6.00,6,0.100,120419.000,0.200,13493.000,0.300,2960.000,0.500,2628.000,1.000,1069.000,5.000,0
"03/10/08","10:01:41",127018.000,"cc",28281.113,6.00,6,0.100,109117.000,0.200,11968.000,0.300,2573.000,0.500,2412.000,1.000,948.000,5.000,0
"03/10/08","10:01:47",141823.000,"cc",28305.152,6.00,6,0.100,122840.000,0.200,13143.000,0.300,2621.000,0.500,2313.000,1.000,906.000,5.000,0
"03/10/08","10:01:53",84797.000,"cc",28299.186,6.00,6,0.100,72076.000,0.200,7548.000,0.300,2281.000,0.500,2096.000,1.000,796.000,5.000,0
"03/10/08","10:01:59",70666.000,"cc",28335.385,6.00,6,0.100,59395.000,0.200,6460.000,0.300,2020.000,0.500,2016.000,1.000,775.000,5.000,0
"03/10/08","10:02:05",73152.000,"cc",28383.854,6.00,6,0.100,61884.000,0.200,6490.000,0.300,2055.000,0.500,1952.000,1.000,771.000,5.000,0
"03/10/08","10:02:11",83549.000,"cc",28299.459,6.00,6,0.100,70969.000,0.200,7640.000,0.300,2154.000,0.500,2018.000,1.000,768.000,5.000,0
"03/10/08","10:02:17",184677.000,"cc",28317.410,6.00,6,0.100,158609.000,0.200,20422.000,0.300,2729.000,0.500,2120.000,1.000,797.000,5.000,0
"03/10/08","10:02:23",187443.000,"cc",28287.773,6.00,6,0.100,163325.000,0.200,18549.000,0.300,2619.000,0.500,2116.000,1.000,834.000,5.000,0
"03/10/08","10:02:29",206464.000,"cc",28272.428,6.00,6,0.100,180039.000,0.200,20704.000,0.300,2717.000,0.500,2161.000,1.000,843.000,5.000,0
"03/10/08","10:02:35",154894.000,"cc",28278.197,6.00,6,0.100,134494.000,0.200,14987.000,0.300,2534.000,0.500,2110.000,1.000,769.000,5.000,0
"03/10/08","10:02:41",148565.000,"cc",28335.301,6.00,6,0.100,128642.000,0.200,14408.000,0.300,2608.000,0.500,2135.000,1.000,772.000,5.000,0
"03/10/08","10:02:47",179271.000,"cc",28298.731,6.00,6,0.100,155520.000,0.200,17862.000,0.300,2763.000,0.500,2228.000,1.000,898.000,5.000,0
"03/10/08","10:02:53",90914.000,"cc",28303.072,6.00,6,0.100,77609.000,0.200,8250.000,0.300,2169.000,0.500,2082.000,1.000,804.000,5.000,0
"03/10/08","10:02:59",142704.000,"cc",28345.779,6.00,6,0.100,123016.000,0.200,13636.000,0.300,2673.000,0.500,2386.000,1.000,993.000,5.000,0
"03/10/08","10:03:05",112284.000,"cc",28322.705,6.00,6,0.100,96820.000,0.200,10136.000,0.300,2352.000,0.500,2153.000,1.000,823.000,5.000,0
"03/10/08","10:03:11",111118.000,"cc",28336.463,6.00,6,0.100,95365.000,0.200,10169.000,0.300,2466.000,0.500,2282.000,1.000,836.000,5.000,0
"03/10/08","10:03:17",74099.000,"cc",28276.455,6.00,6,0.100,61934.000,0.200,6780.000,0.300,2299.000,0.500,2215.000,1.000,871.000,5.000,0
"03/10/08","10:03:23",105352.000,"cc",28371.787,6.00,6,0.100,89957.000,0.200,9824.000,0.300,2471.000,0.500,2266.000,1.000,834.000,5.000,0
"03/10/08","10:03:29",88828.000,"cc",28271.674,6.00,6,0.100,75510.000,0.200,8007.000,0.300,2294.000,0.500,2203.000,1.000,814.000,5.000,0
"03/10/08","10:03:35",131607.000,"cc",28287.080,6.00,6,0.100,113946.000,0.200,12385.000,0.300,2421.000,0.500,2121.000,1.000,734.000,5.000,0
"03/10/08","10:03:41",89931.000,"cc",28297.088,6.00,6,0.100,76734.000,0.200,8238.000,0.300,2116.000,0.500,2083.000,1.000,760.000,5.000,0
"03/10/08","10:03:47",106050.000,"cc",28309.947,6.00,6,0.100,90985.000,0.200,9952.000,0.300,2294.000,0.500,2031.000,1.000,788.000,5.000,0
"03/10/08","10:03:53",140716.000,"cc",28306.375,6.00,6,0.100,122072.000,0.200,13517.000,0.300,2397.000,0.500,1992.000,1.000,738.000,5.000,0
"03/10/08","10:03:59",172168.000,"cc",28377.994,6.00,6,0.100,149727.000,0.200,17340.000,0.300,2460.000,0.500,1922.000,1.000,719.000,5.000,0
"03/10/08","10:04:05",186817.000,"cc",28291.227,6.00,6,0.100,162313.000,0.200,19188.000,0.300,2553.000,0.500,2035.000,1.000,728.000,5.000,0
"03/10/08","10:04:11",255024.000,"cc",28355.287,6.00,6,0.100,219299.000,0.200,29906.000,0.300,3013.000,0.500,2063.000,1.000,743.000,5.000,0
"03/10/08","10:04:17",359387.000,"cc",28277.723,6.00,6,0.100,294236.000,0.200,57916.000,0.300,4343.000,0.500,2114.000,1.000,778.000,5.000,0
"03/10/08","10:04:23",359895.000,"cc",28333.836,6.00,6,0.100,309522.000,0.200,44004.000,0.300,3591.000,0.500,2051.000,1.000,727.000,5.000,0
"03/10/08","10:04:29",212374.000,"cc",28314.898,6.00,6,0.100,185117.000,0.200,22028.000,0.300,2621.000,0.500,1914.000,1.000,694.000,5.000,0
"03/10/08","10:04:35",132334.000,"cc",28271.328,6.00,6,0.100,115210.000,0.200,12202.000,0.300,2233.000,0.500,1959.000,1.000,730.000,5.000,0
"03/10/08","10:04:41",224922.000,"cc",28341.131,6.00,6,0.100,194896.000,0.200,24212.000,0.300,2825.000,0.500,2195.000,1.000,794.000,5.000,0
"03/10/08","10:04:47",270825.000,"cc",28367.197,6.00,6,0.100,234617.000,0.200,30115.000,0.300,3045.000,0.500,2249.000,1.000,799.000,5.000,0
"03/10/08","10:04:53",189518.000,"cc",28323.643,6.00,6,0.100,163911.000,0.200,19802.000,0.300,2732.000,0.500,2235.000,1.000,838.000,5.000,0
"03/10/08","10:04:59",122962.000,"cc",28308.188,6.00,6,0.100,105663.000,0.200,12066.000,0.300,2346.000,0.500,2143.000,1.000,744.000,5.000,0
"03/10/08","10:05:05",247513.000,"cc",28280.293,6.00,6,0.100,213624.000,0.200,27361.000,0.300,3251.000,0.500,2408.000,1.000,869.000,5.000,0
"03/10/08","10:05:11",135982.000,"cc",28299.531,6.00,6,0.100,116866.000,0.200,13469.000,0.300,2561.000,0.500,2271.000,1.000,814.000,5.000,1.000
"03/10/08","10:05:17",133895.000,"cc",28297.371,6.00,6,0.100,115022.000,0.200,13201.000,0.300,2676.000,0.500,2192.000,1.000,804.000,5.000,0
"03/10/08","10:05:23",88059.000,"cc",28311.436,6.00,6,0.100,74521.000,0.200,8534.000,0.300,2272.000,0.500,1994.000,1.000,738.000,5.000,0
"03/10/08","10:05:29",234879.000,"cc",28326.801,6.00,6,0.100,201228.000,0.200,27357.000,0.300,3213.000,0.500,2229.000,1.000,852.000,5.000,0
"03/10/08","10:05:35",118828.000,"cc",28272.949,6.00,6,0.100,101607.000,0.200,12182.000,0.300,2358.000,0.500,1973.000,1.000,708.000,5.000,0
"03/10/08","10:05:41",220379.000,"cc",28364.508,6.00,6,0.100,190830.000,0.200,23947.000,0.300,2866.000,0.500,2028.000,1.000,708.000,5.000,0
"03/10/08","10:05:47",238855.000,"cc",28290.957,6.00,6,0.100,207322.000,0.200,25767.000,0.300,2954.000,0.500,2093.000,1.000,719.000,5.000,0
"03/10/08","10:05:53",109919.000,"cc",28360.990,6.00,6,0.100,94240.000,0.200,10842.000,0.300,2167.000,0.500,1992.000,1.000,677.000,5.000,1.000
"03/10/08","10:05:59",246850.000,"cc",28273.447,6.00,6,0.100,212697.000,0.200,28085.000,0.300,3173.000,0.500,2088.000,1.000,807.000,5.000,0
"03/10/08","10:06:05",108591.000,"cc",28354.520,6.00,6,0.100,92771.000,0.200,11000.000,0.300,2217.000,0.500,1935.000,1.000,668.000,5.000,0
"03/10/08","10:06:11",216678.000,"cc",28350.410,6.00,6,0.100,187030.000,0.200,23625.000,0.300,3034.000,0.500,2221.000,1.000,768.000,5.000,0
"03/10/08","10:06:17",100559.000,"cc",28315.762,6.00,6,0.100,86100.000,0.200,9703.000,0.300,2150.000,0.500,1916.000,1.000,690.000,5.000,0
"03/10/08","10:06:23",108708.000,"cc",28301.420,6.00,6,0.100,92717.000,0.200,10901.000,0.300,2309.000,0.500,2033.000,1.000,748.000,5.000,0
"03/10/08","10:06:29",55426.000,"cc",28332.930,6.00,6,0.100,45455.000,0.200,5124.000,0.300,2087.000,0.500,2066.000,1.000,694.000,5.000,0
"03/10/08","10:06:35",56605.000,"cc",28336.391,6.00,6,0.100,44753.000,0.200,5881.000,0.300,2623.000,0.500,2432.000,1.000,916.000,5.000,0
"03/10/08","10:06:41",50109.000,"cc",28280.883,6.00,6,0.100,39871.000,0.200,4951.000,0.300,2310.000,0.500,2169.000,1.000,808.000,5.000,0
"03/10/08","10:06:47",58161.000,"cc",28280.406,6.00,6,0.100,47779.000,0.200,5440.000,0.300,2050.000,0.500,2116.000,1.000,776.000,5.000,0
"03/10/08","10:06:53",50812.000,"cc",28305.449,6.00,6,0.100,41530.000,0.200,4739.000,0.300,1894.000,0.500,1892.000,1.000,757.000,5.000,0
"03/10/08","10:06:59",44354.000,"cc",28280.389,6.00,6,0.100,35891.000,0.200,4042.000,0.300,1794.000,0.500,1911.000,1.000,716.000,5.000,0
"03/10/08","10:07:05",62208.000,"cc",28362.529,6.00,6,0.100,51860.000,0.200,5872.000,0.300,1856.000,0.500,1879.000,1.000,741.000,5.000,0
"03/10/08","10:07:11",43462.000,"cc",28352.885,6.00,6,0.100,35001.000,0.200,3994.000,0.300,1896.000,0.500,1882.000,1.000,689.000,5.000,0
"03/10/08","10:07:17",31774.000,"cc",28324.930,6.00,6,0.100,24647.000,0.200,2766.000,0.300,1814.000,0.500,1871.000,1.000,676.000,5.000,0
"03/10/08","10:07:23",30609.000,"cc",28375.102,6.00,6,0.100,23589.000,0.200,2784.000,0.300,1676.000,0.500,1843.000,1.000,717.000,5.000,0
"03/10/08","10:07:29",29643.000,"cc",28316.816,6.00,6,0.100,22899.000,0.200,2615.000,0.300,1687.000,0.500,1833.000,1.000,609.000,5.000,0
"03/10/08","10:07:35",28829.000,"cc",28334.967,6.00,6,0.100,21912.000,0.200,2533.000,0.300,1791.000,0.500,1905.000,1.000,688.000,5.000,0
"03/10/08","10:07:41",29212.000,"cc",28257.738,6.00,6,0.100,22319.000,0.200,2600.000,0.300,1745.000,0.500,1852.000,1.000,696.000,5.000,0
"03/10/08","10:07:47",28493.000,"cc",28341.236,6.00,6,0.100,21749.000,0.200,2470.000,0.300,1753.000,0.500,1838.000,1.000,683.000,5.000,0
"03/10/08","10:07:53",28501.000,"cc",28279.623,6.00,6,0.100,21786.000,0.200,2476.000,0.300,1689.000,0.500,1874.000,1.000,676.000,5.000,0
"03/10/08","10:07:59",28209.000,"cc",28279.154,6.00,6,0.100,21618.000,0.200,2419.000,0.300,1705.000,0.500,1823.000,1.000,644.000,5.000,0
"03/10/08","10:08:05",28288.000,"cc",28293.219,6.00,6,0.100,21660.000,0.200,2508.000,0.300,1675.000,0.500,1823.000,1.000,622.000,5.000,0
"03/10/08","10:08:11",29119.000,"cc",28307.535,6.00,6,0.100,21926.000,0.200,2676.000,0.300,1813.000,0.500,1943.000,1.000,761.000,5.000,0
"03/10/08","10:08:17",28810.000,"cc",28419.955,6.00,6,0.100,21777.000,0.200,2523.000,0.300,1795.000,0.500,1984.000,1.000,731.000,5.000,0
"03/10/08","10:08:23",28533.000,"cc",28262.481,6.00,6,0.100,21535.000,0.200,2513.000,0.300,1811.000,0.500,1949.000,1.000,725.000,5.000,0
"03/10/08","10:08:29",28511.000,"cc",28297.381,6.00,6,0.100,21603.000,0.200,2508.000,0.300,1842.000,0.500,1867.000,1.000,691.000,5.000,0
"03/10/08","10:08:35",28101.000,"cc",28333.877,6.00,6,0.100,21303.000,0.200,2519.000,0.300,1716.000,0.500,1858.000,1.000,705.000,5.000,0
"03/10/08","10:08:41",28311.000,"cc",28341.326,6.00,6,0.100,21599.000,0.200,2497.000,0.300,1697.000,0.500,1834.000,1.000,684.000,5.000,0
"03/10/08","10:08:47",29126.000,"cc",28322.010,6.00,6,0.100,22138.000,0.200,2638.000,0.300,1772.000,0.500,1912.000,1.000,666.000,5.000,0
"03/10/08","10:08:53",28257.000,"cc",28313.092,6.00,6,0.100,21604.000,0.200,2367.000,0.300,1716.000,0.500,1854.000,1.000,716.000,5.000,0
"03/10/08","10:08:59",28240.000,"cc",28281.871,6.00,6,0.100,21575.000,0.200,2437.000,0.300,1701.000,0.500,1824.000,1.000,703.000,5.000,0
"03/10/08","10:09:05",27885.000,"cc",28386.033,6.00,6,0.100,21327.000,0.200,2462.000,0.300,1580.000,0.500,1823.000,1.000,693.000,5.000,0
"03/10/08","10:09:11",28078.000,"cc",28341.908,6.00,6,0.100,21397.000,0.200,2451.000,0.300,1779.000,0.500,1823.000,1.000,628.000,5.000,0
"03/10/08","10:09:17",28285.000,"cc",28292.402,6.00,6,0.100,21633.000,0.200,2494.000,0.300,1622.000,0.500,1837.000,1.000,699.000,5.000,0
"03/10/08","10:09:23",27690.000,"cc",28282.252,6.00,6,0.100,21159.000,0.200,2360.000,0.300,1659.000,0.500,1822.000,1.000,690.000,5.000,0
"03/10/08","10:09:29",27618.000,"cc",28313.393,6.00,6,0.100,21101.000,0.200,2349.000,0.300,1726.000,0.500,1803.000,1.000,639.000,5.000,0
"03/10/08","10:09:35",28149.000,"cc",28340.990,6.00,6,0.100,21494.000,0.200,2363.000,0.300,1771.000,0.500,1818.000,1.000,703.000,5.000,0
"03/10/08","10:09:41",28024.000,"cc",28317.627,6.00,6,0.100,21334.000,0.200,2369.000,0.300,1740.000,0.500,1902.000,1.000,679.000,5.000,0
"03/10/08","10:09:47",28539.000,"cc",28370.262,6.00,6,0.100,21811.000,0.200,2430.000,0.300,1790.000,0.500,1832.000,1.000,676.000,5.000,0
"03/10/08","10:09:53",27945.000,"cc",28291.338,6.00,6,0.100,21484.000,0.200,2347.000,0.300,1669.000,0.500,1790.000,1.000,655.000,5.000,0
"03/10/08","10:09:59",27913.000,"cc",28321.791,6.00,6,0.100,21276.000,0.200,2467.000,0.300,1717.000,0.500,1792.000,1.000,661.000,5.000,0
"03/10/08","10:10:05",27869.000,"cc",28265.467,6.00,6,0.100,21269.000,0.200,2357.000,0.300,1732.000,0.500,1819.000,1.000,692.000,5.000,0
"03/10/08","10:10:11",27519.000,"cc",28363.340,6.00,6,0.100,21269.000,0.200,2333.000,0.300,1645.000,0.500,1660.000,1.000,612.000,5.000,0
"03/10/08","10:10:17",27805.000,"cc",28327.979,6.00,6,0.100,21145.000,0.200,2437.000,0.300,1741.000,0.500,1841.000,1.000,641.000,5.000,0
"03/10/08","10:10:23",27984.000,"cc",28391.059,6.00,6,0.100,21420.000,0.200,2400.000,0.300,1684.000,0.500,1811.000,1.000,669.000,5.000,0
"03/10/08","10:10:29",27877.000,"cc",28285.238,6.00,6,0.100,21151.000,0.200,2486.000,0.300,1720.000,0.500,1896.000,1.000,624.000,5.000,0
"03/10/08","10:10:35",28408.000,"cc",28311.109,6.00,6,0.100,21619.000,0.200,2550.000,0.300,1665.000,0.500,1876.000,1.000,698.000,5.000,0
"03/10/08","10:10:41",27806.000,"cc",28292.402,6.00,6,0.100,21043.000,0.200,2453.000,0.300,1731.000,0.500,1842.000,1.000,737.000,5.000,0
"03/10/08","10:10:47",27828.000,"cc",28326.881,6.00,6,0.100,21361.000,0.200,2405.000,0.300,1643.000,0.500,1785.000,1.000,634.000,5.000,0
"03/10/08","10:10:53",27263.000,"cc",28377.725,6.00,6,0.100,20839.000,0.200,2286.000,0.300,1646.000,0.500,1855.000,1.000,637.000,5.000,0
"03/10/08","10:10:59",27648.000,"cc",28283.731,6.00,6,0.100,21290.000,0.200,2371.000,0.300,1562.000,0.500,1734.000,1.000,691.000,5.000,0
"03/10/08","10:11:05",27862.000,"cc",28261.254,6.00,6,0.100,21298.000,0.200,2419.000,0.300,1682.000,0.500,1796.000,1.000,667.000,5.000,0
"03/10/08","10:11:11",28271.000,"cc",28328.535,6.00,6,0.100,21460.000,0.200,2585.000,0.300,1809.000,0.500,1756.000,1.000,661.000,5.000,0
"03/10/08","10:11:17",27990.000,"cc",28309.897,6.00,6,0.100,21421.000,0.200,2399.000,0.300,1721.000,0.500,1764.000,1.000,685.000,5.000,0
"03/10/08","10:11:23",27972.000,"cc",28273.426,6.00,6,0.100,21303.000,0.200,2489.000,0.300,1740.000,0.500,1728.000,1.000,712.000,5.000,0
"03/10/08","10:11:29",28222.000,"cc",28369.031,6.00,6,0.100,21356.000,0.200,2529.000,0.300,1784.000,0.500,1848.000,1.000,705.000,5.000,0
"03/10/08","10:11:35",27868.000,"cc",28283.828,6.00,6,0.100,21315.000,0.200,2371.000,0.300,1655.000,0.500,1853.000,1.000,674.000,5.000,0
"03/10/08","10:11:41",27157.000,"cc",28278.076,6.00,6,0.100,20772.000,0.200,2290.000,0.300,1627.000,0.500,1792.000,1.000,676.000,5.000,0
"03/10/08","10:11:47",27676.000,"cc",28351.846,6.00,6,0.100,21174.000,0.200,2338.000,0.300,1755.000,0.500,1746.000,1.000,663.000,5.000,0
"03/10/08","10:11:53",27624.000,"cc",28344.486,6.00,6,0.100,21066.000,0.200,2395.000,0.300,1666.000,0.500,1826.000,1.000,671.000,5.000,0
"03/10/08","10:11:59",27282.000,"cc",28297.602,6.00,6,0.100,20760.000,0.200,2367.000,0.300,1682.000,0.500,1792.000,1.000,681.000,5.000,0
"03/10/08","10:12:05",27821.000,"cc",28286.180,6.00,6,0.100,21252.000,0.200,2346.000,0.300,1704.000,0.500,1807.000,1.000,711.000,5.000,1.000
"03/10/08","10:12:11",27714.000,"cc",28370.123,6.00,6,0.100,21082.000,0.200,2435.000,0.300,1721.000,0.500,1798.000,1.000,678.000,5.000,0
"03/10/08","10:12:17",28041.000,"cc",28336.498,6.00,6,0.100,21444.000,0.200,2338.000,0.300,1771.000,0.500,1803.000,1.000,685.000,5.000,0
"03/10/08","10:12:23",28173.000,"cc",28318.721,6.00,6,0.100,21273.000,0.200,2527.000,0.300,1788.000,0.500,1891.000,1.000,694.000,5.000,0
"03/10/08","10:12:29",27818.000,"cc",28271.377,6.00,6,0.100,21112.000,0.200,2439.000,0.300,1704.000,0.500,1862.000,1.000,701.000,5.000,0
"03/10/08","10:12:35",27939.000,"cc",28338.783,6.00,6,0.100,21250.000,0.200,2436.000,0.300,1714.000,0.500,1876.000,1.000,663.000,5.000,0
"03/10/08","10:12:41",27709.000,"cc",28299.502,6.00,6,0.100,20966.000,0.200,2417.000,0.300,1764.000,0.500,1871.000,1.000,691.000,5.000,0
"03/10/08","10:12:47",27665.000,"cc",28314.350,6.00,6,0.100,21173.000,0.200,2335.000,0.300,1628.000,0.500,1856.000,1.000,673.000,5.000,0
"03/10/08","10:12:53",27860.000,"cc",28357.742,6.00,6,0.100,21197.000,0.200,2393.000,0.300,1733.000,0.500,1909.000,1.000,628.000,5.000,0
"03/10/08","10:12:59",28122.000,"cc",28313.686,6.00,6,0.100,21343.000,0.200,2430.000,0.300,1781.000,0.500,1910.000,1.000,658.000,5.000,0
"03/10/08","10:13:05",28041.000,"cc",28255.779,6.00,6,0.100,21330.000,0.200,2449.000,0.300,1750.000,0.500,1830.000,1.000,682.000,5.000,0
"03/10/08","10:13:11",27650.000,"cc",28320.795,6.00,6,0.100,20938.000,0.200,2466.000,0.300,1725.000,0.500,1846.000,1.000,675.000,5.000,0
"03/10/08","10:13:17",27430.000,"cc",28397.400,6.00,6,0.100,20979.000,0.200,2399.000,0.300,1627.000,0.500,1757.000,1.000,668.000,5.000,0
"03/10/08","10:13:23",27409.000,"cc",28285.889,6.00,6,0.100,20999.000,0.200,2350.000,0.300,1609.000,0.500,1835.000,1.000,616.000,5.000,0
"03/10/08","10:13:29",27589.000,"cc",28310.584,6.00,6,0.100,21074.000,0.200,2374.000,0.300,1697.000,0.500,1768.000,1.000,676.000,5.000,0
"03/10/08","10:13:35",27769.000,"cc",28309.199,6.00,6,0.100,21175.000,0.200,2368.000,0.300,1629.000,0.500,1930.000,1.000,667.000,5.000,0
"03/10/08","10:13:41",27612.000,"cc",28232.076,6.00,6,0.100,21230.000,0.200,2298.000,0.300,1656.000,0.500,1813.000,1.000,615.000,5.000,0
"03/10/08","10:13:47",27329.000,"cc",28299.354,6.00,6,0.100,20857.000,0.200,2293.000,0.300,1697.000,0.500,1814.000,1.000,668.000,5.000,0
"03/10/08","10:13:53",27787.000,"cc",28333.824,6.00,6,0.100,21095.000,0.200,2511.000,0.300,1678.000,0.500,1803.000,1.000,700.000,5.000,0
"03/10/08","10:13:59",27333.000,"cc",28359.928,6.00,6,0.100,20844.000,0.200,2351.000,0.300,1692.000,0.500,1753.000,1.000,693.000,5.000,0
"03/10/08","10:14:05",27264.000,"cc",28323.574,6.00,6,0.100,20725.000,0.200,2441.000,0.300,1684.000,0.500,1755.000,1.000,659.000,5.000,0
"03/10/08","10:14:11",27511.000,"cc",28298.559,6.00,6,0.100,20932.000,0.200,2353.000,0.300,1695.000,0.500,1882.000,1.000,649.000,5.000,0
"03/10/08","10:14:17",27796.000,"cc",28296.240,6.00,6,0.100,21081.000,0.200,2425.000,0.300,1714.000,0.500,1919.000,1.000,657.000,5.000,0
"03/10/08","10:14:23",27541.000,"cc",28293.943,6.00,6,0.100,20916.000,0.200,2348.000,0.300,1754.000,0.500,1830.000,1.000,693.000,5.000,0
"03/10/08","10:14:29",27196.000,"cc",28309.467,6.00,6,0.100,20844.000,0.200,2374.000,0.300,1666.000,0.500,1687.000,1.000,625.000,5.000,0
"03/10/08","10:14:35",27218.000,"cc",28353.637,6.00,6,0.100,20808.000,0.200,2331.000,0.300,1648.000,0.500,1782.000,1.000,649.000,5.000,0
"03/10/08","10:14:41",27334.000,"cc",28359.658,6.00,6,0.100,20729.000,0.200,2322.000,0.300,1720.000,0.500,1850.000,1.000,713.000,5.000,0
"03/10/08","10:14:47",27313.000,"cc",28342.857,6.00,6,0.100,20701.000,0.200,2302.000,0.300,1720.000,0.500,1863.000,1.000,727.000,5.000,0
"03/10/08","10:14:53",28008.000,"cc",28327.703,6.00,6,0.100,21219.000,0.200,2403.000,0.300,1675.000,0.500,1961.000,1.000,750.000,5.000,0
"03/10/08","10:14:59",27678.000,"cc",28342.135,6.00,6,0.100,20928.000,0.200,2475.000,0.300,1736.000,0.500,1788.000,1.000,751.000,5.000,0
"03/10/08","10:15:05",27500.000,"cc",28321.832,6.00,6,0.100,20910.000,0.200,2405.000,0.300,1745.000,0.500,1765.000,1.000,675.000,5.000,0
"03/10/08","10:15:11",27370.000,"cc",28366.979,6.00,6,0.100,20867.000,0.200,2398.000,0.300,1621.000,0.500,1798.000,1.000,686.000,5.000,0
"03/10/08","10:15:17",27467.000,"cc",28348.061,6.00,6,0.100,20849.000,0.200,2413.000,0.300,1668.000,0.500,1838.000,1.000,699.000,5.000,0
"03/10/08","10:15:23",27642.000,"cc",28306.463,6.00,6,0.100,20966.000,0.200,2461.000,0.300,1694.000,0.500,1817.000,1.000,704.000,5.000,0
"03/10/08","10:15:29",27529.000,"cc",28344.545,6.00,6,0.100,20974.000,0.200,2385.000,0.300,1608.000,0.500,1861.000,1.000,701.000,5.000,0
"03/10/08","10:15:35",27338.000,"cc",28355.965,6.00,6,0.100,20766.000,0.200,2376.000,0.300,1685.000,0.500,1830.000,1.000,681.000,5.000,0
"03/10/08","10:15:41",27263.000,"cc",28290.260,6.00,6,0.100,20795.000,0.200,2360.000,0.300,1666.000,0.500,1742.000,1.000,700.000,5.000,0
"03/10/08","10:15:47",27378.000,"cc",28373.834,6.00,6,0.100,20842.000,0.200,2344.000,0.300,1720.000,0.500,1788.000,1.000,684.000,5.000,0
"03/10/08","10:15:53",27465.000,"cc",28320.184,6.00,6,0.100,20751.000,0.200,2375.000,0.300,1750.000,0.500,1894.000,1.000,695.000,5.000,0
"03/10/08","10:15:59",27402.000,"cc",28283.023,6.00,6,0.100,20744.000,0.200,2384.000,0.300,1678.000,0.500,1856.000,1.000,740.000,5.000,0
"03/10/08","10:16:05",27587.000,"cc",28256.523,6.00,6,0.100,20860.000,0.200,2417.000,0.300,1729.000,0.500,1874.000,1.000,707.000,5.000,0
"03/10/08","10:16:11",27676.000,"cc",28339.266,6.00,6,0.100,21156.000,0.200,2359.000,0.300,1616.000,0.500,1831.000,1.000,714.000,5.000,0
"03/10/08","10:16:17",27433.000,"cc",28353.727,6.00,6,0.100,20826.000,0.200,2392.000,0.300,1679.000,0.500,1837.000,1.000,699.000,5.000,0